[Date Prev][Date Next][Thread Prev][Thread Next] - [Date Index][Thread Index][Author Index]
2 Line ISS Keps 8-5
- Subject: [sarex] 2 Line ISS Keps 8-5
- From: "Dave Larsen PhD" <doc@xxxxxxxxxxx>
- Date: Mon, 5 Aug 2002 03:19:50 -0700
ISS
1 25544U 98067A 02217.13093066 .00024255 00000-0 33074-3 0 135
2 25544 51.6356 167.2358 0018111 105.2303 8.6247 15.57187998211669
----
Via the sarex mailing list at AMSAT.ORG courtesy of AMSAT-NA.
To unsubscribe, send "unsubscribe sarex" to Majordomo@amsat.org
AMSAT Home